Location: Fours
(44.3167°N, 6.7000°E)
Time: 00:14:57
(UTC+00:00)

H-2A R/B - Pass Details

Date: 16 October 2021
Orbit: 577 x 653 km, 98.5° (Epoch: 05 December)

Event Time Altitude Azimuth Distance (km) Brightness Sun altitude
Rises 18:14:00 0° 18° (NNE) 2,804 5.3 -16.3°
Reaches altitude 10° 18:16:11 10° 23° (NNE) 1,901 4.4 -16.7°
Maximum altitude 18:20:13 55° 101° (ESE) 704 1.9 -17.4°
Drops below altitude 10° 18:24:16 10° 180° (S) 1,905 4.5 -18.1°
Sets 18:26:28 0° 185° (S) 2,810 5.4 -18.5°
